Flag for Netherlands Weather past 2 weeks in 's-Hertogenbosch, Netherlands

Now
79 °F

Scattered clouds.


Feels Like: 81 °F
Forecast: 57 / 73 °F
Wind: 7 mph from Northeast

Location: Volkel

Current Time: Jul 29, 2014 at 1:50:35 PM

Latest Report: Jul 29, 2014 at 12:55 PM


Visibility: N/A

Pressure: 29.86 "Hg

Humidity: 70%

Dew point: 68 °F

Location of 's-HertogenboschLocation

Historic Weather in 's-Hertogenbosch — Graph

°F

's-Hertogenbosch temperature yesterday

Maximum temperature yesterday: 73 °F (at 11:25 AM)
Minimum temperature yesterday: 63 °F (at 11:25 PM)
Average temperature yesterday: 68 °F

Past Weeks' High & Low Weather Summary

 TemperatureHumidityPressure
High91 °F (Jul 19, 1:25 PM)100% (Jul 14, 11:25 PM)30.18 "Hg (Jul 14, 11:25 PM)
Low50 °F (Jul 15, 5:25 AM)31% (Jul 19, 2:55 PM)29.74 "Hg (Jul 20, 3:25 AM)
Average70 °F78%29.98 "Hg
* Reported Jul 14 12:25 PM — Jul 29 12:25 PM, 's-Hertogenbosch, Weather by CustomWeather, © 2014

Note: Actual official high and low records may vary slightly from our data, if they occured in-between our weather recording intervals... More about our weather records

Advertising

's-Hertogenbosch weather history for previous 24 hours

 ConditionsComfort  
Time TempWeatherWind HumidityBarometerVisibility
12:25 PM
Jul 29
79 °FPassing clouds.8 mph70%29.86 "HgN/A
11:59 AM77 °FPassing clouds.8 mph74%29.86 "HgN/A
11:25 AM75 °FScattered clouds.6 mph78%29.86 "HgN/A
10:55 AM73 °FMild.6 mph78%29.86 "HgN/A
10:25 AM70 °FFog.6 mph88%29.86 "Hg6 mi
9:57 AM70 °FFog.7 mph88%29.86 "Hg4 mi
9:25 AM68 °FFog.7 mph94%29.86 "Hg5 mi
8:55 AM68 °FFog.8 mph94%29.86 "Hg4 mi
8:25 AM66 °FFog.5 mph100%29.86 "Hg3 mi
7:55 AM64 °FFog.6 mph100%29.86 "Hg3 mi
7:25 AM64 °FFog.5 mph100%29.86 "Hg2 mi
6:55 AM64 °FFog.7 mph94%29.86 "Hg2 mi
6:25 AM63 °FFog.5 mph100%29.86 "Hg2 mi
5:55 AM63 °FFog.6 mph100%29.83 "Hg2 mi
5:25 AM63 °FFog.5 mph100%29.86 "Hg2 mi
4:55 AM63 °FFog.3 mph100%29.86 "Hg2 mi
4:25 AM63 °FFog.3 mph100%29.86 "Hg2 mi
3:59 AM63 °FFog.3 mph94%29.86 "Hg2 mi
3:55 AM63 °FFog.3 mph94%29.86 "Hg2 mi
3:25 AM63 °FFog.3 mph94%29.86 "Hg4 mi
2:55 AM63 °FFog.5 mph94%29.86 "Hg5 mi
2:25 AM63 °FFog.5 mph100%29.86 "Hg6 mi
1:55 AM63 °FFog.3 mph100%29.86 "Hg4 mi
1:25 AM63 °FFog.5 mph100%29.86 "Hg4 mi
12:55 AM63 °FFog.3 mph100%29.89 "Hg4 mi
12:25 AM63 °FFog.3 mph100%29.89 "Hg6 mi
11:55 PM
Jul 28
64 °FMild.5 mph94%29.89 "HgN/A
11:25 PM63 °FFog.2 mph100%29.89 "Hg3 mi
10:55 PM64 °FFog.2 mph100%29.89 "Hg4 mi
10:25 PM64 °FFog.2 mph100%29.89 "Hg4 mi
10:03 PM66 °FFog.2 mph94%29.86 "Hg1 mi
9:55 PM66 °FPartly sunny.3 mph94%29.89 "HgN/A
9:25 PM68 °FDrizzle. Broken clouds.3 mph88%29.86 "HgN/A
8:55 PM70 °FBroken clouds.3 mph83%29.86 "HgN/A
8:25 PM72 °FMostly cloudy.5 mph73%29.86 "HgN/A
7:55 PM72 °FOvercast.6 mph73%29.86 "HgN/A
7:25 PM72 °FOvercast.6 mph78%29.86 "HgN/A
6:55 PM73 °FScattered clouds.8 mph74%29.83 "HgN/A
6:25 PM73 °FScattered clouds.5 mph69%29.83 "HgN/A
5:55 PM72 °FOvercast.3 mph78%29.83 "HgN/A
5:25 PM72 °FMild.7 mph73%29.83 "HgN/A
4:55 PM73 °FThunderstorms. Scattered clouds.9 mph78%29.83 "HgN/A
4:25 PM73 °FOvercast.9 mph74%29.83 "HgN/A
4:03 PM73 °FBroken clouds.8 mph83%29.83 "HgN/A
3:55 PM72 °FFog.10 mph83%29.86 "Hg6 mi
3:25 PM72 °FFog.5 mph88%29.86 "Hg3 mi
2:55 PM70 °FThunderstorms. Partly sunny.3 mph94%29.86 "Hg3 mi
2:25 PM70 °FThunderstorms. Fog.6 mph88%29.83 "Hg3 mi
2:00 PM70 °FThunderstorms. Fog.7 mph88%29.86 "Hg3 mi
1:25 PM70 °FThunderstorms. Fog.8 mph88%29.83 "Hg3 mi
Weather by CustomWeather, © 2014

See weather overviewHow to use our weather pages